Location: Boitzum
(52.1496°N, 9.6943°E)
Time: 07:08:43
(UTC+00:00)

Cosmos 614 Rocket - Pass Details

Date: 13 January 2026
Orbit: 728 x 758 km, 74.1° (Epoch: 19 February)

Event Time Altitude Azimuth Distance (km) Brightness Sun altitude
Exits shadow 04:47:45 57° 238° (WSW) 857 3.9 -23.2°
Maximum altitude 04:48:39 72° 297° (WNW) 771 3.7 -23.0°
Drops below altitude 10° 04:53:42 10° 22° (NNE) 2,236 6.6 -22.3°
Sets 04:56:04 0° 25° (NNE) 3,163 7.4 -21.9°
